Miscellaneous Local Product
Issued by NWS Hastings, NE

Home | Current Version | Previous Version | Graphics & Text | Print | Product List | Glossary On
Versions: 1 2 3 4 5 6 7 8 9 10 11 12 13 14 15 16 17 18 19 20 21 22 23 24 25 26 27 28 29 30 31 32 33 34 35 36 37 38 39 40 41 42 43 44 45 46 47 48 49 50
000
AXUS43 KGID 281102
MISGRI

GID CWA HOURLY WEATHER ROUNDUP
NATIONAL WEATHER SERVICE HASTINGS NE
600 AM CDT THU MAY 28 2015

NOTE: "FAIR" INDICATES FEW OR NO CLOUDS BELOW 12,000 FEET WITH NO
SIGNIFICANT WEATHER AND/OR OBSTRUCTIONS TO VISIBILITY.

...SOUTH CENTRAL NEBRASKA...

CITY           SKY/WX    TMP DP  RH WIND       PRES   REMARKS
GRAND ISLAND   CLOUDY    60  57  89 S8        30.04R
HASTINGS       CLOUDY    61  59  93 SE7       30.03R
KEARNEY        CLOUDY    59  55  88 SW8       30.02F
ORD            MOCLDY    57  55  93 CALM      30.02R
YORK           CLOUDY    63  55  77 SE6       30.04S
AURORA         CLOUDY    61  58  87 SE9       30.04R
LEXINGTON      FOG       56  55  96 CALM      30.04R VSB 1/4
HOLDREGE       CLOUDY    56  54  94 SE7       30.02S
HEBRON         CLOUDY    64  59  85 SE3       30.03F

...NEBRASKA PANHANDLE...

CITY           SKY/WX    TMP DP  RH WIND       PRES   REMARKS
CHADRON        MOCLDY    56  51  84 SW6       29.95R
ALLIANCE       PTCLDY    50  49  96 W10       29.98R
SCOTTSBLUFF    MOCLDY    53  51  93 CALM      30.00S
SIDNEY         PTCLDY    53  52  96 S8        30.02S

...WESTERN AND NORTH CENTRAL NEBRASKA...

CITY           SKY/WX    TMP DP  RH WIND       PRES   REMARKS
VALENTINE      MOCLDY    56  53  90 SE8       29.98R
AINSWORTH      PTCLDY    57  56  98 S8        30.01R
ONEILL         PTCLDY    62  58  87 S8        30.02R
BROKEN BOW     PTCLDY    55  54  96 CALM      30.03R FOG
IMPERIAL       MOCLDY    52  50  93 E6        30.03S
NORTH PLATTE   FOG       53  53 100 E5        30.03F VSB 1/2
MCCOOK         CLOUDY    54  52  93 E5        30.02S

...EASTERN NEBRASKA...

CITY           SKY/WX    TMP DP  RH WIND       PRES   REMARKS
NORFOLK        MOCLDY    64  53  67 S12       30.03R
SO SIOUX CITY  MOCLDY    57  51  80 SE9       30.04R
TEKAMAH        CLOUDY    58  53  84 CALM      30.05R
COLUMBUS       CLOUDY    63  52  67 S8        30.06R
ALBION         MOCLDY    60  53  78 SE6       30.03R
OMAHA EPPLEY   CLOUDY    63  54  72 SE3       30.05R
OFFUTT AFB     CLOUDY    59  54  82 E6        30.05R
MILLARD        CLOUDY    59  56  88 CALM      30.05R
LINCOLN        LGT RAIN  63  57  81 S6        30.06R
NEBRASKA CITY  CLOUDY    64  52  65 SE7       30.06R
BEATRICE       RAIN      62  60  92 S15G24    30.06R
FALLS CITY     NOT AVBL

...NORTHERN KANSAS...

CITY           SKY/WX    TMP DP  RH WIND       PRES   REMARKS
GOODLAND       CLOUDY    56  55  97 SW10      30.02S
HILL CITY      CLOUDY    57  54  89 E3        30.02S
NORTON         SUNNY     57  52  82 CALM      30.02R
PHILLIPSBURG   CLEAR     59  59 100 CALM      30.02F
HAYS           CLOUDY    57  50  77 E5        30.01S
RUSSELL        CLOUDY    59  57  93 NE8       30.00F
CONCORDIA      CLOUDY    62  61  96 E3        30.03R
SALINA         CLOUDY    64  61  90 SE6       30.04R
TOPEKA         LGT RAIN  65  63  93 S8        30.10R



USA.gov is the U.S. government's official web portal to all federal, state and local government web resources and services.